| time (UTC) | temp C | wind direction | speed KPH | gust KPH | rain 1hr cm | rain 24hr cm | rain mn cm | humidity % | barometer mb |
| 20260502224444 | 24 | 228 | 8.0 | 25.7 | 0.00 | 0.00 | 0.00 | 8 | 1013.7 |
| 20260502224111 | 23 | 174 | 24.1 | 37.0 | 0.00 | 0.00 | 0.00 | 8 | 1013.7 |
| 20260502223944 | 23 | 186 | 20.9 | 30.6 | 0.00 | 0.00 | 0.00 | 8 | 1013.8 |
| 20260502223443 | 23 | 174 | 24.1 | 37.0 | 0.00 | 0.00 | 0.00 | 8 | 1013.7 |
| 20260502222942 | 23 | 172 | 27.4 | 33.8 | 0.00 | 0.00 | 0.00 | 7 | 1013.8 |
| 20260502222442 | 24 | 155 | 12.9 | 24.1 | 0.00 | 0.00 | 0.00 | 7 | 1013.8 |
| 20260502221941 | 24 | 131 | 19.3 | 35.4 | 0.00 | 0.00 | 0.00 | 7 | 1014.1 |
| 20260502221441 | 24 | 184 | 11.3 | 30.6 | 0.00 | 0.00 | 0.00 | 8 | 1014.0 |
| 20260502220940 | 23 | 203 | 27.4 | 33.8 | 0.00 | 0.00 | 0.00 | 7 | 1014.1 |
| 20260502220440 | 23 | 160 | 24.1 | 32.2 | 0.00 | 0.00 | 0.00 | 7 | 1014.1 |
| 20260502220014 | 23 | 158 | 16.1 | 32.2 | 0.00 | 0.00 | 0.00 | 8 | 1014.3 |
| 20260502215939 | 23 | 158 | 16.1 | 32.2 | 0.00 | 0.00 | 0.00 | 8 | 1014.3 |
| 20260502215439 | 23 | 148 | 27.4 | 40.2 | 0.00 | 0.00 | 0.00 | 7 | 1014.4 |
| 20260502214938 | 23 | 160 | 20.9 | 38.6 | 0.00 | 0.00 | 0.00 | 8 | 1014.4 |
| 20260502214525 | 23 | 152 | 20.9 | 45.1 | 0.00 | 0.00 | 0.00 | 8 | 1014.4 |
| 20260502214438 | 23 | 152 | 20.9 | 45.1 | 0.00 | 0.00 | 0.00 | 8 | 1014.4 |
| 20260502213936 | 23 | 165 | 37.0 | 48.3 | 0.00 | 0.00 | 0.00 | 7 | 1014.5 |
| 20260502213436 | 23 | 155 | 25.7 | 40.2 | 0.00 | 0.00 | 0.00 | 6 | 1014.8 |
| 20260502212935 | 23 | 170 | 22.5 | 37.0 | 0.00 | 0.00 | 0.00 | 7 | 1014.8 |
| 20260502212435 | 23 | 165 | 19.3 | 27.4 | 0.00 | 0.00 | 0.00 | 7 | 1014.9 |
| 20260502211934 | 23 | 205 | 17.7 | 29.0 | 0.00 | 0.00 | 0.00 | 6 | 1015.0 |
| 20260502211434 | 23 | 124 | 14.5 | 37.0 | 0.00 | 0.00 | 0.00 | 6 | 1015.2 |
| 20260502210933 | 23 | 193 | 22.5 | 37.0 | 0.00 | 0.00 | 0.00 | 6 | 1015.1 |
| 20260502210433 | 23 | 170 | 29.0 | 33.8 | 0.00 | 0.00 | 0.00 | 6 | 1015.2 |
| 20260502205932 | 23 | 184 | 9.7 | 27.4 | 0.00 | 0.00 | 0.00 | 6 | 1015.3 |
| 20260502205430 | 24 | 184 | 12.9 | 27.4 | 0.00 | 0.00 | 0.00 | 7 | 1015.3 |
| 20260502204929 | 23 | 180 | 17.7 | 27.4 | 0.00 | 0.00 | 0.00 | 7 | 1015.3 |
| 20260502204429 | 23 | 252 | 8.0 | 16.1 | 0.00 | 0.00 | 0.00 | 7 | 1015.5 |
| 20260502203928 | 23 | 194 | 11.3 | 25.7 | 0.00 | 0.00 | 0.00 | 7 | 1015.7 |
| 20260502203428 | 23 | 183 | 17.7 | 25.7 | 0.00 | 0.00 | 0.00 | 7 | 1015.8 |
| 20260502202927 | 22 | 177 | 22.5 | 30.6 | 0.00 | 0.00 | 0.00 | 7 | 1015.8 |
| 20260502202426 | 22 | 170 | 14.5 | 24.1 | 0.00 | 0.00 | 0.00 | 8 | 1015.8 |
| 20260502201926 | 23 | 184 | 14.5 | 22.5 | 0.00 | 0.00 | 0.00 | 8 | 1016.0 |
| 20260502201425 | 22 | 156 | 17.7 | 20.9 | 0.00 | 0.00 | 0.00 | 7 | 1016.0 |
| 20260502200925 | 22 | 100 | 11.3 | 29.0 | 0.00 | 0.00 | 0.00 | 7 | 1016.0 |
| 20260502200502 | 23 | 170 | 22.5 | 35.4 | 0.00 | 0.00 | 0.00 | 7 | 1016.0 |
| 20260502200424 | 23 | 170 | 22.5 | 35.4 | 0.00 | 0.00 | 0.00 | 7 | 1016.0 |
| 20260502195924 | 22 | 167 | 12.9 | 38.6 | 0.00 | 0.00 | 0.00 | 7 | 1016.2 |
| 20260502195423 | 23 | 187 | 22.5 | 29.0 | 0.00 | 0.00 | 0.00 | 7 | 1016.2 |
| 20260502194923 | 22 | 181 | 14.5 | 25.7 | 0.00 | 0.00 | 0.00 | 7 | 1016.2 |
| 20260502194423 | 23 | 115 | 12.9 | 29.0 | 0.00 | 0.00 | 0.00 | 6 | 1016.4 |
| 20260502193922 | 23 | 167 | 11.3 | 27.4 | 0.00 | 0.00 | 0.00 | 7 | 1016.5 |
| 20260502193421 | 22 | 195 | 20.9 | 29.0 | 0.00 | 0.00 | 0.00 | 6 | 1016.5 |
| 20260502192921 | 23 | 172 | 17.7 | 29.0 | 0.00 | 0.00 | 0.00 | 6 | 1016.6 |
| 20260502192420 | 23 | 193 | 16.1 | 32.2 | 0.00 | 0.00 | 0.00 | 7 | 1016.6 |
| 20260502191920 | 23 | 208 | 16.1 | 33.8 | 0.00 | 0.00 | 0.00 | 8 | 1016.6 |
| 20260502191419 | 23 | 100 | 22.5 | 29.0 | 0.00 | 0.00 | 0.00 | 9 | 1016.6 |
| 20260502190919 | 22 | 156 | 14.5 | 30.6 | 0.00 | 0.00 | 0.00 | 7 | 1016.9 |
| 20260502190418 | 22 | 135 | 17.7 | 33.8 | 0.00 | 0.00 | 0.00 | 9 | 1016.7 |
| 20260502185918 | 22 | 176 | 24.1 | 40.2 | 0.00 | 0.00 | 0.00 | 9 | 1016.9 |
| 20260502185417 | 22 | 170 | 16.1 | 25.7 | 0.00 | 0.00 | 0.00 | 9 | 1017.0 |
| 20260502184917 | 22 | 138 | 22.5 | 30.6 | 0.00 | 0.00 | 0.00 | 8 | 1017.1 |
| 20260502184418 | 21 | 174 | 19.3 | 32.2 | 0.00 | 0.00 | 0.00 | 8 | 1017.2 |
| 20260502183916 | 22 | 165 | 22.5 | 32.2 | 0.00 | 0.00 | 0.00 | 8 | 1017.2 |
| 20260502183415 | 22 | 155 | 16.1 | 41.8 | 0.00 | 0.00 | 0.00 | 10 | 1017.3 |
| 20260502182915 | 21 | 173 | 19.3 | 33.8 | 0.00 | 0.00 | 0.00 | 9 | 1017.4 |
| 20260502182414 | 21 | 141 | 27.4 | 35.4 | 0.00 | 0.00 | 0.00 | 9 | 1017.4 |
| 20260502181914 | 22 | 143 | 20.9 | 35.4 | 0.00 | 0.00 | 0.00 | 10 | 1017.5 |
| 20260502181509 | 21 | 166 | 22.5 | 32.2 | 0.00 | 0.00 | 0.00 | 11 | 1017.5 |
| 20260502181413 | 21 | 166 | 22.5 | 32.2 | 0.00 | 0.00 | 0.00 | 11 | 1017.5 |
| 20260502180913 | 21 | 159 | 24.1 | 32.2 | 0.00 | 0.00 | 0.00 | 11 | 1017.7 |
| 20260502180412 | 21 | 139 | 27.4 | 35.4 | 0.00 | 0.00 | 0.00 | 11 | 1017.7 |
| 20260502170402 | 19 | 55 | 4.8 | 12.9 | 0.00 | 0.00 | 0.00 | 28 | 1018.4 |
| 20260502163859 | 17 | 96 | 8.0 | 14.5 | 0.00 | 0.00 | 0.00 | 38 | 1018.6 |
| 20260502163358 | 16 | 72 | 9.7 | 16.1 | 0.00 | 0.00 | 0.00 | 38 | 1018.6 |
| 20260502162857 | 16 | 56 | 12.9 | 16.1 | 0.00 | 0.00 | 0.00 | 39 | 1018.6 |
| 20260502162357 | 16 | 62 | 14.5 | 16.1 | 0.00 | 0.00 | 0.00 | 39 | 1018.6 |
| 20260502161856 | 15 | 32 | 14.5 | 17.7 | 0.00 | 0.00 | 0.00 | 40 | 1018.6 |
| 20260502161355 | 15 | 69 | 17.7 | 19.3 | 0.00 | 0.00 | 0.00 | 40 | 1018.6 |
| 20260502160854 | 14 | 46 | 14.5 | 16.1 | 0.00 | 0.00 | 0.00 | 42 | 1018.5 |
| 20260502160354 | 14 | 65 | 14.5 | 17.7 | 0.00 | 0.00 | 0.00 | 46 | 1018.7 |
| 20260502151849 | 10 | 52 | 6.4 | 19.3 | 0.00 | 0.00 | 0.00 | 55 | 1018.9 |
| 20260502151349 | 10 | 58 | 14.5 | 16.1 | 0.00 | 0.00 | 0.00 | 60 | 1018.8 |
| 20260502150848 | 10 | 91 | 8.0 | 16.1 | 0.00 | 0.00 | 0.00 | 59 | 1018.9 |
| 20260502150348 | 9 | 62 | 14.5 | 11.3 | 0.00 | 0.00 | 0.00 | 57 | 1018.8 |
| 20260502130326 | 3 | 110 | 8.0 | 11.3 | 0.00 | 0.00 | 0.00 | 63 | 1018.7 |
| 20260502123323 | 3 | 129 | 4.8 | 8.0 | 0.00 | 0.00 | 0.00 | 73 | 1018.6 |
| 20260502122822 | 2 | 142 | 6.4 | 8.0 | 0.00 | 0.00 | 0.00 | 76 | 1018.6 |
| 20260502122322 | 3 | 114 | 4.8 | 8.0 | 0.00 | 0.00 | 0.00 | 75 | 1018.7 |
| 20260502121821 | 3 | 162 | 6.4 | 11.3 | 0.00 | 0.00 | 0.00 | 72 | 1018.6 |
| 20260502121321 | 3 | 115 | 6.4 | 11.3 | 0.00 | 0.00 | 0.00 | 72 | 1018.7 |
| 20260502120820 | 3 | 90 | 11.3 | 12.9 | 0.00 | 0.00 | 0.00 | 74 | 1018.7 |
| 20260502120320 | 3 | 103 | 11.3 | 9.7 | 0.00 | 0.00 | 0.00 | 73 | 1018.7 |
| 20260502115819 | 4 | 100 | 9.7 | 8.0 | 0.00 | 0.00 | 0.00 | 68 | 1018.7 |
| 20260502115319 | 5 | 69 | 6.4 | 0.0 | 0.00 | 0.00 | 0.00 | 65 | 1018.7 |
| 20260502114818 | 5 | 98 | 0.0 | 1.6 | 0.00 | 0.00 | 0.00 | 65 | 1018.7 |
| 20260502114318 | 5 | 98 | 0.0 | 8.0 | 0.00 | 0.00 | 0.00 | 64 | 1018.7 |
| 20260502114009 | 5 | 135 | 4.8 | 12.9 | 0.00 | 0.00 | 0.00 | 61 | 1018.7 |
| 20260502113817 | 5 | 98 | 4.8 | 9.7 | 0.00 | 0.00 | 0.00 | 63 | 1018.7 |
| 20260502113317 | 5 | 135 | 4.8 | 12.9 | 0.00 | 0.00 | 0.00 | 61 | 1018.7 |
| 20260502112816 | 5 | 166 | 8.0 | 9.7 | 0.00 | 0.00 | 0.00 | 65 | 1018.6 |
| 20260502112316 | 5 | 108 | 8.0 | 9.7 | 0.00 | 0.00 | 0.00 | 62 | 1018.6 |
| 20260502111815 | 5 | 158 | 4.8 | 12.9 | 0.00 | 0.00 | 0.00 | 61 | 1018.6 |
| 20260502111315 | 5 | 159 | 11.3 | 9.7 | 0.00 | 0.00 | 0.00 | 63 | 1018.7 |
| 20260502110814 | 5 | 108 | 6.4 | 12.9 | 0.00 | 0.00 | 0.00 | 63 | 1018.7 |
| 20260502110314 | 6 | 63 | 4.8 | 9.7 | 0.00 | 0.00 | 0.00 | 60 | 1018.7 |
| 20260502105813 | 6 | 80 | 4.8 | 6.4 | 0.00 | 0.00 | 0.00 | 63 | 1018.6 |
| 20260502105313 | 6 | 44 | 4.8 | 4.8 | 0.00 | 0.00 | 0.00 | 59 | 1018.6 |
| 20260502104812 | 7 | 87 | 3.2 | 4.8 | 0.00 | 0.00 | 0.00 | 58 | 1018.7 |
| 20260502104312 | 7 | 18 | 0.0 | 4.8 | 0.00 | 0.00 | 0.00 | 53 | 1018.6 |
| 20260502103811 | 7 | 319 | 4.8 | 4.8 | 0.00 | 0.00 | 0.00 | 53 | 1018.6 |
| 20260502103311 | 6 | 274 | 1.6 | 6.4 | 0.00 | 0.00 | 0.00 | 57 | 1018.7 |
| 20260502102810 | 7 | 101 | 4.8 | 6.4 | 0.00 | 0.00 | 0.00 | 54 | 1018.6 |
| 20260502102310 | 7 | 191 | 3.2 | 11.3 | 0.00 | 0.00 | 0.00 | 53 | 1018.5 |
| 20260502101809 | 6 | 155 | 3.2 | 11.3 | 0.00 | 0.00 | 0.00 | 54 | 1018.5 |
| 20260502101309 | 6 | 173 | 4.8 | 9.7 | 0.00 | 0.00 | 0.00 | 54 | 1018.5 |
| 20260502100808 | 6 | 298 | 8.0 | 9.7 | 0.00 | 0.00 | 0.00 | 56 | 1018.5 |
| 20260502100307 | 6 | 270 | 8.0 | 8.0 | 0.00 | 0.00 | 0.00 | 54 | 1018.5 |
| 20260502091302 | 8 | 172 | 3.2 | 9.7 | 0.00 | 0.00 | 0.00 | 50 | 1018.4 |
| 20260502090802 | 8 | 62 | 6.4 | 9.7 | 0.00 | 0.00 | 0.00 | 46 | 1018.4 |
| 20260502090301 | 7 | 59 | 4.8 | 9.7 | 0.00 | 0.00 | 0.00 | 52 | 1018.5 |
| 20260502071249 | 7 | 97 | 4.8 | 6.4 | 0.00 | 0.00 | 0.00 | 48 | 1018.9 |
| 20260502070748 | 7 | 103 | 4.8 | 8.0 | 0.00 | 0.00 | 0.00 | 49 | 1018.9 |
| 20260502070247 | 8 | 70 | 4.8 | 9.7 | 0.00 | 0.00 | 0.00 | 50 | 1018.8 |
| 20260502065746 | 8 | 203 | 3.2 | 6.4 | 0.00 | 0.00 | 0.00 | 49 | 1018.9 |
| 20260502065246 | 9 | 72 | 3.2 | 12.9 | 0.00 | 0.00 | 0.00 | 47 | 1018.8 |
| 20260502064745 | 9 | 143 | 8.0 | 14.5 | 0.00 | 0.00 | 0.00 | 46 | 1018.8 |
| 20260502064245 | 9 | 136 | 12.9 | 12.9 | 0.00 | 0.00 | 0.00 | 43 | 1018.7 |
| 20260502063744 | 9 | 139 | 11.3 | 11.3 | 0.00 | 0.00 | 0.00 | 45 | 1018.8 |
| 20260502063244 | 9 | 145 | 11.3 | 9.7 | 0.00 | 0.00 | 0.00 | 42 | 1018.7 |
| 20260502062743 | 9 | 150 | 3.2 | 9.7 | 0.00 | 0.00 | 0.00 | 45 | 1018.7 |
| 20260502062243 | 10 | 177 | 1.6 | 4.8 | 0.00 | 0.00 | 0.00 | 42 | 1018.8 |
| 20260502061742 | 10 | 89 | 3.2 | 8.0 | 0.00 | 0.00 | 0.00 | 42 | 1018.8 |
| 20260502061242 | 9 | 158 | 3.2 | 11.3 | 0.00 | 0.00 | 0.00 | 42 | 1018.7 |
| 20260502060741 | 8 | 218 | 9.7 | 11.3 | 0.00 | 0.00 | 0.00 | 45 | 1018.8 |
| 20260502060241 | 8 | 163 | 6.4 | 12.9 | 0.00 | 0.00 | 0.00 | 47 | 1018.8 |
| 20260502055740 | 8 | 194 | 11.3 | 17.7 | 0.00 | 0.00 | 0.00 | 46 | 1018.8 |
| 20260502055240 | 8 | 183 | 9.7 | 14.5 | 0.00 | 0.00 | 0.00 | 48 | 1018.9 |
| 20260502054739 | 9 | 162 | 12.9 | 16.1 | 0.00 | 0.00 | 0.00 | 47 | 1018.8 |
| 20260502054239 | 9 | 195 | 11.3 | 9.7 | 0.00 | 0.00 | 0.00 | 45 | 1018.8 |
| 20260502053738 | 9 | 200 | 4.8 | 11.3 | 0.00 | 0.00 | 0.00 | 44 | 1018.8 |
| 20260502053238 | 10 | 183 | 8.0 | 11.3 | 0.00 | 0.00 | 0.00 | 42 | 1018.8 |
| 20260502052737 | 10 | 214 | 4.8 | 11.3 | 0.00 | 0.00 | 0.00 | 41 | 1018.8 |
| 20260502052237 | 10 | 191 | 6.4 | 12.9 | 0.00 | 0.00 | 0.00 | 43 | 1018.8 |
| 20260502051736 | 10 | 205 | 6.4 | 9.7 | 0.00 | 0.00 | 0.00 | 42 | 1018.8 |
| 20260502051236 | 10 | 162 | 6.4 | 6.4 | 0.00 | 0.00 | 0.00 | 44 | 1018.8 |
| 20260502050735 | 10 | 155 | 4.8 | 11.3 | 0.00 | 0.00 | 0.00 | 45 | 1018.8 |
| 20260502050235 | 10 | 160 | 8.0 | 8.0 | 0.00 | 0.00 | 0.00 | 42 | 1018.8 |
| 20260502045734 | 9 | 180 | 6.4 | 9.7 | 0.00 | 0.00 | 0.00 | 46 | 1018.8 |
| 20260502045234 | 10 | 188 | 6.4 | 8.0 | 0.00 | 0.00 | 0.00 | 43 | 1018.8 |
| 20260502044733 | 11 | 179 | 6.4 | 9.7 | 0.00 | 0.00 | 0.00 | 39 | 1018.8 |
| 20260502044232 | 11 | 195 | 8.0 | 9.7 | 0.00 | 0.00 | 0.00 | 37 | 1018.8 |
| 20260502043730 | 11 | 197 | 8.0 | 11.3 | 0.00 | 0.00 | 0.00 | 36 | 1018.8 |
| 20260502043229 | 10 | 198 | 8.0 | 9.7 | 0.00 | 0.00 | 0.00 | 40 | 1018.8 |
| 20260502042729 | 9 | 191 | 4.8 | 9.7 | 0.00 | 0.00 | 0.00 | 42 | 1018.7 |
| 20260502042228 | 9 | 193 | 6.4 | 6.4 | 0.00 | 0.00 | 0.00 | 43 | 1018.7 |
| 20260502041728 | 10 | 187 | 6.4 | 4.8 | 0.00 | 0.00 | 0.00 | 43 | 1018.7 |
| 20260502041228 | 10 | 166 | 3.2 | 6.4 | 0.00 | 0.00 | 0.00 | 40 | 1018.6 |
| 20260502040727 | 10 | 179 | 4.8 | 6.4 | 0.00 | 0.00 | 0.00 | 40 | 1018.6 |
| 20260502040226 | 10 | 184 | 6.4 | 6.4 | 0.00 | 0.00 | 0.00 | 37 | 1018.6 |
| 20260502035726 | 11 | 180 | 4.8 | 8.0 | 0.00 | 0.00 | 0.00 | 37 | 1018.6 |
| 20260502035307 | 11 | 198 | 6.4 | 6.4 | 0.00 | 0.00 | 0.00 | 36 | 1018.6 |
| 20260502035224 | 11 | 198 | 6.4 | 6.4 | 0.00 | 0.00 | 0.00 | 36 | 1018.6 |
| 20260502034724 | 11 | 200 | 4.8 | 4.8 | 0.00 | 0.00 | 0.00 | 37 | 1018.5 |
| 20260502034223 | 11 | 170 | 3.2 | 3.2 | 0.00 | 0.00 | 0.00 | 37 | 1018.5 |
| 20260502033723 | 11 | 131 | 0.0 | 0.0 | 0.00 | 0.00 | 0.00 | 38 | 1018.4 |
| 20260502033222 | 11 | 131 | 0.0 | 0.0 | 0.00 | 0.00 | 0.00 | 40 | 1018.4 |
| 20260502032722 | 11 | 131 | 0.0 | 1.6 | 0.00 | 0.00 | 0.00 | 43 | 1018.2 |
| 20260502032221 | 12 | 139 | 1.6 | 3.2 | 0.00 | 0.00 | 0.00 | 40 | 1018.2 |
| 20260502031220 | 12 | 149 | 4.8 | 8.0 | 0.00 | 0.00 | 0.00 | 37 | 1018.0 |
| 20260502030720 | 12 | 153 | 6.4 | 8.0 | 0.00 | 0.00 | 0.00 | 39 | 1018.0 |
| 20260502030219 | 13 | 127 | 8.0 | 9.7 | 0.00 | 0.00 | 0.00 | 36 | 1017.9 |
| 20260502025719 | 14 | 107 | 8.0 | 11.3 | 0.00 | 0.00 | 0.00 | 37 | 1017.9 |
| 20260502025218 | 16 | 77 | 9.7 | 12.9 | 0.00 | 0.00 | 0.00 | 28 | 1017.8 |
| 20260502024718 | 16 | 82 | 11.3 | 11.3 | 0.00 | 0.00 | 0.00 | 26 | 1017.8 |
| 20260502024215 | 16 | 90 | 9.7 | 11.3 | 0.00 | 0.00 | 0.00 | 25 | 1017.8 |
| 20260502023715 | 17 | 91 | 9.7 | 9.7 | 0.00 | 0.00 | 0.00 | 27 | 1017.8 |
| 20260502023214 | 17 | 90 | 8.0 | 11.3 | 0.00 | 0.00 | 0.00 | 23 | 1017.8 |
| 20260502022714 | 18 | 73 | 9.7 | 11.3 | 0.00 | 0.00 | 0.00 | 19 | 1017.8 |
| 20260502022213 | 18 | 66 | 8.0 | 8.0 | 0.00 | 0.00 | 0.00 | 18 | 1017.8 |
| 20260502021713 | 18 | 73 | 6.4 | 9.7 | 0.00 | 0.00 | 0.00 | 18 | 1017.8 |
| 20260502021212 | 18 | 68 | 8.0 | 9.7 | 0.00 | 0.00 | 0.00 | 18 | 1017.8 |
| 20260502020711 | 18 | 53 | 6.4 | 8.0 | 0.00 | 0.00 | 0.00 | 18 | 1017.8 |
| 20260502020211 | 18 | 66 | 8.0 | 8.0 | 0.00 | 0.00 | 0.00 | 19 | 1017.8 |
| 20260502015711 | 18 | 63 | 8.0 | 9.7 | 0.00 | 0.00 | 0.00 | 20 | 1017.8 |
| 20260502015210 | 18 | 69 | 8.0 | 12.9 | 0.00 | 0.00 | 0.00 | 21 | 1017.8 |
| 20260502014709 | 18 | 79 | 11.3 | 12.9 | 0.00 | 0.00 | 0.00 | 23 | 1017.8 |
| 20260502014209 | 18 | 97 | 11.3 | 12.9 | 0.00 | 0.00 | 0.00 | 19 | 1017.9 |
| 20260502013708 | 18 | 87 | 9.7 | 12.9 | 0.00 | 0.00 | 0.00 | 20 | 1017.9 |
| 20260502013208 | 19 | 80 | 11.3 | 12.9 | 0.00 | 0.00 | 0.00 | 17 | 1018.0 |
| 20260502012707 | 19 | 48 | 8.0 | 12.9 | 0.00 | 0.00 | 0.00 | 17 | 1017.9 |
| 20260502012207 | 19 | 18 | 8.0 | 14.5 | 0.00 | 0.00 | 0.00 | 15 | 1017.9 |
| 20260502011706 | 19 | 28 | 9.7 | 12.9 | 0.00 | 0.00 | 0.00 | 15 | 1018.0 |
| 20260502011206 | 20 | 10 | 6.4 | 14.5 | 0.00 | 0.00 | 0.00 | 14 | 1018.0 |
| 20260502010703 | 19 | 20 | 11.3 | 14.5 | 0.00 | 0.00 | 0.00 | 14 | 1018.0 |
| 20260502010203 | 19 | 23 | 6.4 | 17.7 | 0.00 | 0.00 | 0.00 | 16 | 1018.1 |
| 20260502005704 | 19 | 39 | 9.7 | 17.7 | 0.00 | 0.00 | 0.00 | 17 | 1018.1 |
| 20260502005202 | 20 | 73 | 11.3 | 14.5 | 0.00 | 0.00 | 0.00 | 16 | 1018.1 |
| 20260502004701 | 20 | 84 | 9.7 | 19.3 | 0.00 | 0.00 | 0.00 | 15 | 1018.1 |
| 20260502004201 | 19 | 15 | 14.5 | 11.3 | 0.00 | 0.00 | 0.00 | 14 | 1018.1 |
| 20260502003700 | 19 | 77 | 8.0 | 14.5 | 0.00 | 0.00 | 0.00 | 14 | 1018.1 |
| 20260502003200 | 18 | 63 | 11.3 | 16.1 | 0.00 | 0.00 | 0.00 | 15 | 1018.1 |
| 20260502002658 | 19 | 55 | 12.9 | 17.7 | 0.00 | 0.00 | 0.00 | 16 | 1018.2 |
| 20260502002158 | 19 | 46 | 14.5 | 17.7 | 0.00 | 0.00 | 0.00 | 16 | 1018.4 |
| 20260502001657 | 19 | 53 | 11.3 | 16.1 | 0.00 | 0.00 | 0.00 | 16 | 1018.4 |
| 20260502001157 | 19 | 28 | 8.0 | 20.9 | 0.00 | 0.00 | 0.00 | 16 | 1018.4 |
| 20260502000656 | 19 | 21 | 16.1 | 16.1 | 0.00 | 0.00 | 0.00 | 16 | 1018.5 |
| 20260502000230 | 20 | 65 | 9.7 | 16.1 | 0.00 | 0.00 | 0.00 | 14 | 1018.5 |
| 20260502000155 | 20 | 65 | 9.7 | 16.1 | 0.00 | 0.00 | 0.00 | 14 | 1018.5 |
| 20260501235655 | 19 | 25 | 9.7 | 16.1 | 0.00 | 0.00 | 0.00 | 16 | 1018.5 |
| 20260501235154 | 19 | 56 | 12.9 | 16.1 | 0.00 | 0.00 | 0.00 | 15 | 1018.5 |
| 20260501234654 | 19 | 48 | 11.3 | 19.3 | 0.00 | 0.00 | 0.00 | 16 | 1018.6 |
| 20260501234152 | 19 | 32 | 16.1 | 17.7 | 0.00 | 0.00 | 0.00 | 15 | 1018.6 |
| 20260501233652 | 19 | 30 | 14.5 | 14.5 | 0.00 | 0.00 | 0.00 | 15 | 1018.6 |
| 20260501233151 | 19 | 39 | 9.7 | 14.5 | 0.00 | 0.00 | 0.00 | 15 | 1018.7 |
| 20260501232651 | 19 | 8 | 9.7 | 22.5 | 0.00 | 0.00 | 0.00 | 16 | 1018.7 |
| 20260501232150 | 19 | 6 | 4.8 | 19.3 | 0.00 | 0.00 | 0.00 | 16 | 1018.6 |
| 20260501231650 | 20 | 11 | 14.5 | 17.7 | 0.00 | 0.00 | 0.00 | 16 | 1018.7 |
| 20260501231149 | 19 | 86 | 12.9 | 12.9 | 0.00 | 0.00 | 0.00 | 16 | 1018.7 |
| 20260501230649 | 20 | 316 | 8.0 | 20.9 | 0.00 | 0.00 | 0.00 | 16 | 1018.8 |
| 20260501230148 | 19 | 345 | 12.9 | 16.1 | 0.00 | 0.00 | 0.00 | 15 | 1018.8 |
| 20260501225648 | 19 | 21 | 8.0 | 20.9 | 0.00 | 0.00 | 0.00 | 14 | 1018.9 |
| 20260501225147 | 19 | 37 | 8.0 | 14.5 | 0.00 | 0.00 | 0.00 | 16 | 1019.0 |